Location: Heiligenberg
(48.5381°N, 7.3897°E)
Time: 13:15:35
(UTC+00:00)

USA 32 - Visible Passes

Search period start: 26 September 2022 00:00
Search period end: 06 October 2022 00:00
Orbit: 778 x 781 km, 85.0° (Epoch: 01 September)

Date Brightness Start Highest point End Pass type
(mag) Time Alt. Az. Time Alt. Az. Time Alt. Az.
26 Sep 6.7 22:18:41 10° N 22:19:32 15° N 22:19:32 15° N visible
27 Sep 6.7 21:46:00 10° NNE 21:46:36 13° NNE 21:46:36 13° NNE visible
27 Sep 6.9 23:26:46 10° NNW 23:27:06 12° NNW 23:27:06 12° NNW visible
28 Sep 6.7 21:13:37 10° NNE 21:13:39 10° NNE 21:13:39 10° NNE visible
28 Sep 6.8 22:53:33 10° N 22:54:09 13° NNW 22:54:09 13° NNW visible
29 Sep 6.8 22:20:32 10° N 22:21:13 14° N 22:21:13 14° N visible
30 Sep 6.7 21:47:41 10° N 21:48:17 13° N 21:48:17 13° N visible
01 Oct 6.7 21:15:03 10° NNE 21:15:22 11° NNE 21:15:22 11° NNE visible
01 Oct 7.0 22:55:39 10° NNW 22:55:52 11° NNW 22:55:52 11° NNW visible
02 Oct 6.9 22:22:29 10° N 22:22:57 12° N 22:22:57 12° N visible
03 Oct 6.8 21:49:30 10° N 21:50:02 13° N 21:50:02 13° N visible
04 Oct 6.7 21:16:42 10° N 21:17:07 12° N 21:17:07 12° N visible
05 Oct 6.7 20:44:08 10° NNE 20:44:12 10° NNE 20:44:12 10° NNE visible
05 Oct 7.0 22:24:33 10° NNW 22:24:43 11° NNW 22:24:43 11° NNW visible
